Weather History for Millville, NJ

Change the Weather History Date:

Thursday, February 13, 2014

  Actual Average Record
Temperature  
Mean Temperature 32 °F -  
Max Temperature 37 °F 40 °F 68 °F (1951)
Min Temperature 28 °F 23 °F 2 °F (1954)
Degree Days  
Heating Degree Days 32    
Moisture  
Dew Point 32 °F    
Average Humidity 95    
Maximum Humidity 100    
Minimum Humidity 92    
Precipitation  
Precipitation 1.09 in - - ()
Sea Level Pressure  
Sea Level Pressure 29.61 in    
Wind  
Wind Speed 16 mph (NNE)    
Max Wind Speed 31 mph    
Max Gust Speed 45 mph    
Visibility 4 miles    
Events Rain , Snow    
Averages and records for this station are not official NWS values.
T = Trace of Precipitation, MM = Missing Value Source: NWS Daily Summary

Daily Weather History Graph

Daily Weather History Graph

Search for Another Location

Airport:

Trip Planner

Search our weather history database for the weather conditions in past years. The results will help you decide how hot, cold, wet, or windy it might be!

Date:

Astronomy

Feb. 13, 2014 Rise Set
Actual Time 6:54 AM EST 5:34 PM EST
Civil Twilight 6:27 AM EST 6:02 PM EST
Nautical Twilight 5:55 AM EST 6:33 PM EST
Astronomical Twilight 5:24 AM EST 7:05 PM EST
Moon 4:41 PM EST (2/13) 5:46 AM EST (2/13)
Length of Visible Light 11h 35m
Length of Day
10h 40m
Waxing Gibbous, 98% of the Moon is Illuminated
Feb 13
Waxing Gibbous
Feb 14
Full
Feb 22
Last Quarter
Mar 1
New
Mar 8
First Quarter

Hourly Weather History & Observations

Time (EST) Temp. Windchill Dew Point Humidity Pressure Visibility Wind Dir Wind Speed Gust Speed Precip Events Conditions
12:51 AM 28.4 °F 18.0 °F 26.6 °F 93% 30.14 in 2.0 mi NE 12.7 mph - 0.00 in Snow Light Snow
12:54 AM 28.0 °F 17.5 °F 27.0 °F 96% 30.14 in 2.0 mi NE 12.7 mph - 0.00 in Snow Light Snow
1:09 AM 28.0 °F 17.5 °F 27.0 °F 96% 30.12 in 1.2 mi NE 12.7 mph - 0.00 in Snow Light Snow
1:27 AM 28.9 °F 18.2 °F 27.0 °F 92% 30.10 in 0.8 mi NE 13.8 mph - 0.00 in Snow Light Snow
1:49 AM 28.4 °F 18.0 °F 28.4 °F 100% 30.09 in 1.0 mi NE 12.7 mph - 0.00 in Snow Light Snow
1:54 AM 28.9 °F 18.2 °F 28.0 °F 96% 30.09 in 1.0 mi NE 13.8 mph - 0.00 in Snow Light Snow
2:54 AM 28.9 °F 17.3 °F 28.0 °F 96% 30.05 in 1.0 mi NE 16.1 mph - 0.00 in Snow Light Snow
3:15 AM 28.0 °F 15.3 °F 27.0 °F 96% 30.02 in 1.0 mi NE 18.4 mph 24.2 mph 0.00 in Snow Light Snow
3:35 AM 28.9 °F 16.9 °F 27.0 °F 92% 30.00 in 0.8 mi NE 17.3 mph - 0.00 in Snow Light Snow
3:47 AM 28.9 °F 17.3 °F 28.0 °F 96% 29.99 in 0.8 mi NE 16.1 mph - 0.00 in Snow Light Snow
3:50 AM 28.4 °F 16.6 °F 28.4 °F 100% 29.98 in 1.0 mi NE 16.1 mph - 0.00 in Snow Light Snow
3:54 AM 28.9 °F 17.3 °F 28.0 °F 96% 29.98 in 1.2 mi NE 16.1 mph - 0.00 in Snow Light Snow
4:04 AM 30.0 °F 18.3 °F 28.0 °F 92% 29.96 in 1.8 mi NE 17.3 mph - 0.00 in Snow Light Snow
4:11 AM 30.0 °F 18.7 °F 28.9 °F 96% 29.95 in 3.0 mi NE 16.1 mph - 0.00 in Snow Light Snow
4:26 AM 30.9 °F 18.7 °F 28.9 °F 92% 29.94 in 4.0 mi NE 19.6 mph - 0.00 in Rain Light Freezing Rain
4:54 AM 32.0 °F 21.2 °F 30.9 °F 96% 29.92 in 5.0 mi NE 16.1 mph 27.6 mph N/A Rain Light Freezing Rain
5:54 AM 33.1 °F 21.2 °F 32.0 °F 96% 29.83 in 7.0 mi NE 20.7 mph 28.8 mph 0.13 in Rain Light Freezing Rain
6:16 AM 34.0 °F 21.3 °F 32.0 °F 92% 29.78 in 5.0 mi NE 25.3 mph 34.5 mph 0.06 in Rain Rain
6:54 AM 35.1 °F 22.2 °F 33.1 °F 92% 29.75 in 8.0 mi NE 27.6 mph 38.0 mph 0.17 in Rain Light Rain
7:04 AM 35.1 °F 23.0 °F 33.1 °F 92% 29.73 in 7.0 mi NE 24.2 mph 36.8 mph 0.04 in Rain Rain
7:54 AM 35.1 °F 23.0 °F 33.1 °F 92% 29.65 in 3.0 mi NE 24.2 mph 36.8 mph 0.26 in Rain Rain
8:35 AM 36.0 °F 22.8 °F 34.0 °F 93% 29.62 in 2.5 mi NE 31.1 mph 44.9 mph 0.12 in Rain Light Rain
8:50 AM 35.6 °F 24.0 °F 33.8 °F 93% 29.61 in 3.0 mi NE 23.0 mph 34.5 mph 0.14 in Rain Light Rain
8:54 AM 35.1 °F 22.5 °F 34.0 °F 96% 29.61 in 4.0 mi NE 26.5 mph 33.4 mph 0.15 in Rain Light Rain
9:33 AM 36.0 °F 24.4 °F 34.0 °F 93% 29.58 in 6.0 mi NE 23.0 mph 31.1 mph 0.02 in Rain Light Rain
9:54 AM 36.0 °F 25.0 °F 35.1 °F 97% 29.57 in 3.0 mi NE 20.7 mph 33.4 mph 0.03 in Rain Light Rain
10:54 AM 37.0 °F 26.2 °F 35.1 °F 93% 29.53 in 2.0 mi NNE 21.9 mph 29.9 mph 0.00 in Rain Light Rain
11:40 AM 37.0 °F 25.4 °F 36.0 °F 96% 29.46 in 3.0 mi NNE 25.3 mph 35.7 mph 0.01 in Rain Light Rain
11:54 AM 37.0 °F 26.2 °F 36.0 °F 96% 29.46 in 4.0 mi NE 21.9 mph 32.2 mph 0.01 in Rain Light Rain
12:54 PM 37.0 °F 26.4 °F 36.0 °F 96% 29.40 in 5.0 mi NE 20.7 mph 33.4 mph 0.00 in   Overcast
1:54 PM 37.0 °F 25.1 °F 35.1 °F 93% 29.32 in 9.0 mi NE 26.5 mph 34.5 mph N/A   Overcast
2:54 PM 37.0 °F 27.4 °F 35.1 °F 93% 29.29 in 9.0 mi NE 17.3 mph 32.2 mph N/A   Overcast
3:54 PM 37.0 °F 27.0 °F 35.1 °F 93% 29.26 in 7.0 mi NE 18.4 mph 28.8 mph N/A   Overcast
4:54 PM 36.0 °F 26.3 °F 35.1 °F 97% 29.20 in 4.0 mi NE 16.1 mph 23.0 mph N/A   Overcast
5:47 PM 36.0 °F 28.0 °F 35.1 °F 97% 29.17 in 2.5 mi NNE 11.5 mph - 0.09 in Rain Rain
5:54 PM 36.0 °F 25.6 °F 35.1 °F 97% 29.17 in 5.0 mi NE 18.4 mph 25.3 mph 0.10 in Rain Light Rain
6:54 PM 35.1 °F 28.6 °F 34.0 °F 96% 29.17 in 8.0 mi NNE 8.1 mph - 0.10 in Rain Light Rain
7:54 PM 35.1 °F 28.6 °F 34.0 °F 96% 29.16 in 8.0 mi NNW 8.1 mph - 0.06 in Rain Light Rain
8:16 PM 35.1 °F 29.3 °F 34.0 °F 96% 29.15 in 2.5 mi NNW 6.9 mph - 0.02 in Rain Light Rain
8:26 PM 35.1 °F 29.3 °F 34.0 °F 96% 29.15 in 4.0 mi NW 6.9 mph - 0.03 in Rain Light Rain
8:54 PM 34.0 °F 26.6 °F 33.1 °F 96% 29.14 in 3.0 mi NW 9.2 mph - 0.04 in Snow Light Snow
9:54 PM 33.1 °F 23.4 °F 32.0 °F 96% 29.14 in 3.0 mi NW 13.8 mph 20.7 mph 0.01 in Rain Light Rain
10:54 PM 33.1 °F 24.9 °F 32.0 °F 96% 29.16 in 4.0 mi West 10.4 mph - 0.02 in Rain Light Rain
11:12 PM 33.1 °F 24.4 °F 32.0 °F 96% 29.16 in 2.5 mi WNW 11.5 mph - 0.00 in Snow Light Snow
11:47 PM 33.1 °F 21.2 °F 30.9 °F 92% 29.17 in 4.0 mi NW 20.7 mph 28.8 mph 0.01 in Snow Light Snow
11:54 PM 33.1 °F 22.6 °F 30.9 °F 92% 29.17 in 2.5 mi WNW 16.1 mph 28.8 mph 0.01 in Snow Light Snow